This demonstration page uses our WeatherBlox Daily Observations layout. Learn more.

Left ArrowRight Arrow

Hourly Observations for September 1, 2021

Temp ( °F °C ) Dew Point ( °F °C ) Humidity (%) Winds ( mph kmh ) Pressure ( in mb ) Visibility ( mi km ) Precip ( " mm )
12:51 am 00:51 Cloudy 71 21.7 71 21.7 100 100 N N/A 29.67 1005 10 16 0.10 2.54
1:31 am 01:31 Cloudy with Light Rain 71 21.7 71 21.7 100 100 W 3 6 29.68 1005 10 16 0.02 0.51
1:51 am 01:51 Cloudy 71 21.7 71 21.7 100 100 N N/A 29.67 1005 10 16 0.03 0.76
2:04 am 02:04 Cloudy with Light Rain 71 21.7 71 21.7 100 100 N N/A 29.68 1005 8 13 0.00 0.00
2:42 am 02:42 Cloudy with Light Rain 71 21.7 71 21.7 100 100 N N/A 29.68 1005 4 6 0.09 2.29
2:51 am 02:51 Cloudy with Rain 71 21.7 71 21.7 100 100 N N/A 29.66 1004 3 5 0.11 2.79
2:56 am 02:56 Cloudy with Rain 71 21.7 71 21.7 100 100 WNW 3 6 29.67 1005 2 3 0.02 0.51
3:05 am 03:05 Cloudy with Heavy Rain 71 21.7 71 21.7 100 100 W 8 13 29.67 1005 2 2 0.09 2.29
3:10 am 03:10 Cloudy with Rain 70 21 70 21 100 100 W 14 22 29.68 1005 2 3 N/A
3:18 am 03:18 Cloudy with Heavy Rain 70 21.1 70 21.1 100 100 W 14 22 29.68 1005 2 2 0.16 4.06
3:30 am 03:30 Cloudy with Heavy Rain 70 21.1 70 21.1 100 100 W 9 15 29.68 1005 1 2 0.45 11.43
3:37 am 03:37 Cloudy with Light Rain 69 20.6 69 20.6 100 100 WNW 5 7 29.68 1005 3 5 0.51 12.95
3:51 am 03:51 Cloudy with Light Rain 69 20.6 69 20.6 100 100 N 3 6 29.66 1004 6 10 0.54 13.72
4:51 am 04:51 Cloudy with Light Rain 71 21.7 71 21.7 100 100 SE 5 7 29.67 1005 10 16 0.01 0.25
5:48 am 05:48 Cloudy with Light Rain 72 22 72 22 100 100 SE 8 13 29.69 1005 10 16 0.01 0.25
5:51 am 05:51 Cloudy with Light Rain 71 21.7 71 21.7 100 100 SE 9 15 29.70 1006 10 16 0.01 0.25
6:00 am 06:00 Cloudy with Light Rain 70 21.1 70 21.1 100 100 SE 7 11 29.70 1006 9 14 0.01 0.25
6:07 am 06:07 Cloudy with Light Rain 70 21.1 70 21.1 100 100 ESE 8 13 29.70 1006 8 13 0.01 0.25
6:24 am 06:24 Cloudy 70 21.1 70 21.1 100 100 E 6 9 29.70 1006 10 16 0.01 0.25
6:42 am 06:42 Cloudy with Light Rain 70 21.1 70 21.1 100 100 E 5 7 29.71 1006 10 16 0.02 0.51
6:51 am 06:51 Cloudy 70 21.1 70 21.1 100 100 ESE 5 7 29.71 1006 10 16 0.02 0.51
6:56 am 06:56 Cloudy 72 22 70 21 94 94 ESE 6 9 29.70 1006 10 16 N/A
7:09 am 07:09 Cloudy 71 21.7 70 21.1 96 96 ESE 7 11 29.70 1006 10 16 N/A
7:30 am 07:30 Cloudy 71 21.7 70 21.1 96 96 E 8 13 29.70 1006 10 16 N/A
7:38 am 07:38 Cloudy with Light Rain 72 22 70 21 94 94 E 9 15 29.70 1006 10 16 N/A
7:51 am 07:51 Cloudy with Light Rain 71 21.7 70 21.1 96 96 E 8 13 29.73 1007 10 16 0.00 0.00
8:51 am 08:51 Cloudy 73 22.8 70 21.1 90 90 E 9 15 29.74 1007 10 16 0.00 0.00
9:25 am 09:25 Cloudy with Rain 73 22.8 71 21.7 94 94 VRB 5 7 29.73 1007 2 3 0.00 0.00
9:27 am 09:27 Cloudy with Heavy Rain 73 22.8 71 21.7 94 94 W 8 13 29.73 1007 1 2 0.00 0.00
9:34 am 09:34 Cloudy with Heavy Rain 68 20 68 20 100 100 NNW 13 20 29.76 1008 1 1 0.12 3.05
9:43 am 09:43 Cloudy with Light Rain 69 20.6 68 20 96 96 NNW 16 26 29.75 1007 2 3 0.35 8.89
9:51 am 09:51 Cloudy with Light Rain 69 20.6 68 20 96 96 NNW 12 19 29.78 1008 5 8 0.36 9.14
10:22 am 10:22 Cloudy with Light Rain 70 21.1 69 20.6 97 97 NNW 12 19 29.77 1008 7 11 0.01 0.25
10:51 am 10:51 Cloudy with Light Rain 72 22.2 70 21.1 94 94 NW 12 19 29.78 1008 10 16 0.02 0.51
11:51 am 11:51 Mostly Sunny 76 24.4 68 20 77 77 WNW 12 19 29.77 1008 10 16 0.00 0.00
12:51 pm 12:51 Sunny 79 26.1 68 20 69 69 WNW 9 15 29.76 1008 10 16 N/A
1:51 pm 13:51 Sunny 83 28.3 67 19.4 59 59 NW 13 20 29.73 1007 10 16 N/A
2:51 pm 14:51 Sunny 85 29.4 66 18.9 53 53 WNW 13 20 29.71 1006 10 16 N/A
3:51 pm 15:51 Sunny 85 29.4 65 18.3 51 51 WNW 10 17 29.70 1006 10 16 N/A
4:51 pm 16:51 Mostly Sunny 85 29.4 64 17.8 50 50 NW 12 19 29.69 1006 10 16 N/A
5:51 pm 17:51 Sunny 84 28.9 63 17.2 49 49 NW 12 19 29.70 1006 10 16 N/A
6:51 pm 18:51 Clear 78 25.6 65 18.3 64 64 NW 7 11 29.73 1007 10 16 N/A
7:51 pm 19:51 Clear 74 23.3 67 19.4 79 79 NW 5 7 29.76 1008 10 16 N/A
8:51 pm 20:51 Clear 73 22.8 67 19.4 81 81 WNW 6 9 29.79 1009 10 16 N/A
9:51 pm 21:51 Clear 71 21.7 67 19.4 87 87 NW 7 11 29.81 1010 10 16 N/A
10:51 pm 22:51 Clear 71 21.7 65 18.3 81 81 NNW 5 7 29.80 1009 10 16 N/A
11:51 pm 23:51 Clear 70 21.1 66 18.9 87 87 ESE 6 9 29.81 1009 10 16 N/A

Powered by AerisWeather